Location: Flensburg
(54.6357°N, 9.5142°E)
Time: 13:29:36
(UTC+01:00)

ISS - Pass Details

Date: 07 January 2018
Orbit: 402 x 407 km, 51.6° (Epoch: 21 January)

Event Time Altitude Azimuth Distance (km) Brightness Sun altitude
Exits shadow 07:28:36 11° 264° (W) 1,413 -1.6 -9.8°
Maximum altitude 07:31:28 33° 199° (SSW) 703 -2.6 -9.5°
Drops below altitude 10° 07:34:28 10° 133° (SE) 1,468 0.4 -9.1°
Sets 07:36:40 0° 124° (ESE) 2,328 2.3 -8.8°
